sat.trackr.live / text

‹ back to catalog

ONEWEB-0374

NORAD 49300 · 2021-090X

PAYLOAD ACTIVE UNKNOWN

§ Identity

Operator
Country
UK
Launch date
2021-10-14
Launch site
VOSTO
Launch vehicle
Mass (kg)
RCS (m²)

Purposes: comms

External: N2YO · Heavens-Above · Gunter

§ Orbital elements

Epoch: 2026-05-25T03:08:51.840384Z

Period
109.55 min
Inclination
87.8942°
Eccentricity
0.0002441
Mean motion
13.14501247 rev/d
Perigee alt
1,203.9 km
Apogee alt
1,207.6 km
Semi-major
7,583.9 km
B*
-6.6368e-4
RAAN
294.2951°
Arg perigee
95.1807°
Mean anomaly
264.9601°
Rev number
22,453

§ Raw data

ONEWEB-03741 49300U 21090X   26145.13115556 -.00000233  00000+0 -66368-3 0  99942 49300  87.8942 294.2951 0002441  95.1807 264.9601 13.14501247224531

JSON: /api/v1/satellites/49300 · /tle

For live sub-satellite position, see the globe view (requires WebGL).

§ Visibility from observer

Set your observer location to see the next 7 days of passes ≥ 10°. The values pass through the URL so the page stays shareable.

No JS? Fill the form by hand. The geolocation button needs JavaScript.